Date String (YYYY-MM-DD hh:mm:ss) UTC,Instrument flags,Ambient pressure (hPa),Sample flow (lpm),Bypass flow (lpm),Sample temperature (°C),Ambient temperature (°C),ASC tube jacket temperature (°C),LED temperature (°C),Box temperature (°C),Sample RH (%),Span deviation,Mass concentration (μg/m³),Mass concentration (μg/m³),Mass concentration (μg/m³)
DateTimeUTC,F1_M11,P_M11,Q1_M11,Q2_M11,T1_M11,T2_M11,T3_M11,T4_M11,T5_M11,U1_M11,ZSPAN_M11,X2_M11,X0_M11,X1_M11
2022-04-25 07:00:00,,0833.1,4.99,0.00,22.5,21.8,00.0,31.4,24.3,10.1,0000.0,0003.78,0008.44,0003.17
2022-04-25 07:01:00,,0833.1,5.00,0.00,22.5,21.8,00.0,31.4,24.3,10.1,0000.0,0003.80,0008.44,0003.16
2022-04-25 07:02:00,,0833.0,5.01,0.00,22.4,21.8,00.0,31.4,24.3,10.1,0000.0,0003.79,0009.18,0003.15
2022-04-25 07:03:00,,0833.1,4.99,0.00,22.5,21.8,00.0,31.4,24.2,10.2,0000.0,0003.76,0008.98,0003.14
2022-04-25 07:04:00,,0833.1,5.00,0.00,22.5,21.8,00.0,31.4,24.3,10.2,0000.0,0003.72,0008.68,0003.13
2022-04-25 07:05:00,,0833.1,5.00,0.00,22.4,21.8,00.0,31.4,24.2,10.2,0000.0,0003.66,0008.52,0003.12
2022-04-25 07:06:00,,0833.1,5.01,0.00,22.4,21.8,00.0,31.4,24.2,10.2,0000.0,0003.61,0008.41,0003.12
2022-04-25 07:07:00,,0833.1,5.00,0.00,22.4,21.8,00.0,31.4,24.2,10.3,0000.0,0003.58,0009.01,0003.12
2022-04-25 07:08:00,,0833.0,5.01,0.00,22.4,21.8,00.0,31.4,24.3,10.3,0000.0,0003.60,0009.38,0003.12
2022-04-25 07:09:00,,0833.0,4.98,0.00,22.4,21.8,00.0,31.4,24.2,10.3,0000.0,0003.62,0010.01,0003.12
2022-04-25 07:10:00,,0833.0,5.01,0.00,22.4,21.8,00.0,31.4,24.2,10.3,0000.0,0003.61,0010.19,0003.11
2022-04-25 07:11:00,,0833.0,5.00,0.00,22.4,21.8,00.0,31.4,24.2,10.3,0000.0,0003.57,0010.32,0003.12
2022-04-25 07:12:00,,0833.0,4.98,0.00,22.4,21.8,00.0,31.4,24.2,10.3,0000.0,0003.55,0010.27,0003.13
2022-04-25 07:13:00,,0833.0,5.00,0.00,22.4,21.8,00.0,31.4,24.2,10.3,0000.0,0003.54,0009.37,0003.14
2022-04-25 07:14:00,,0833.0,5.00,0.00,22.4,21.7,00.0,31.4,24.2,10.3,0000.0,0003.57,0008.73,0003.14
2022-04-25 07:15:00,,0832.9,5.00,0.00,22.4,21.7,00.0,31.4,24.2,10.3,0000.0,0003.59,0008.84,0003.14
2022-04-25 07:16:00,,0832.8,4.98,0.00,22.4,21.7,00.0,31.4,24.2,10.3,0000.0,0003.61,0008.78,0003.14
2022-04-25 07:17:00,,0832.8,5.00,0.00,22.4,21.7,00.0,31.4,24.1,10.3,0000.0,0003.61,0008.88,0003.14
2022-04-25 07:18:00,,0832.8,5.01,0.00,22.4,21.7,00.0,31.4,24.1,10.3,0000.0,0003.63,0008.25,0003.15
2022-04-25 07:19:00,,0832.8,4.98,0.00,22.4,21.7,00.0,31.4,24.1,10.4,0000.0,0003.62,0007.88,0003.15
2022-04-25 07:20:00,,0832.9,5.00,0.00,22.4,21.7,00.0,31.4,24.1,10.3,0000.0,0003.59,0006.96,0003.16
2022-04-25 07:21:00,,0832.8,5.00,0.00,22.4,21.7,00.0,31.4,24.1,10.4,0000.0,0003.59,0006.79,0003.18
2022-04-25 07:22:00,,0832.9,5.01,0.00,22.4,21.7,00.0,31.4,24.2,10.4,0000.0,0003.58,0007.47,0003.19
2022-04-25 07:23:00,,0832.9,4.98,0.00,22.4,21.7,00.0,31.4,24.2,10.4,0000.0,0003.59,0007.54,0003.19
2022-04-25 07:24:00,,0832.9,5.00,0.00,22.4,21.7,00.0,31.3,24.2,10.4,0000.0,0003.59,0007.55,0003.20
2022-04-25 07:25:00,,0832.9,5.00,0.00,22.4,21.7,00.0,31.3,24.2,10.4,0000.0,0003.60,0007.62,0003.22
2022-04-25 07:26:00,,0832.8,4.99,0.00,22.4,21.7,00.0,31.3,24.2,10.4,0000.0,0003.62,0007.68,0003.23
2022-04-25 07:27:00,,0832.8,4.99,0.00,22.4,21.7,00.0,31.3,24.2,10.4,0000.0,0003.65,0007.86,0003.25
2022-04-25 07:28:00,,0832.9,5.01,0.00,22.4,21.7,00.0,31.3,24.2,10.3,0000.0,0003.68,0007.80,0003.26
2022-04-25 07:29:00,,0832.9,5.00,0.00,22.4,21.7,00.0,31.3,24.2,10.3,0000.0,0003.69,0007.80,0003.26
2022-04-25 07:30:00,,0832.8,5.00,0.00,22.4,21.7,00.0,31.3,24.1,10.3,0000.0,0003.72,0007.88,0003.27
2022-04-25 07:31:00,,0832.9,5.00,0.00,22.4,21.7,00.0,31.3,24.1,10.3,0000.0,0003.73,0007.87,0003.27
2022-04-25 07:32:00,,0832.9,5.01,0.00,22.4,21.7,00.0,31.3,24.1,10.3,0000.0,0003.74,0007.87,0003.27
2022-04-25 07:33:00,,0832.8,4.98,0.00,22.3,21.7,00.0,31.3,24.1,10.3,0000.0,0003.73,0006.81,0003.27
2022-04-25 07:34:00,,0832.8,5.01,0.00,22.3,21.7,00.0,31.3,24.1,10.4,0000.0,0003.74,0007.28,0003.27
2022-04-25 07:35:00,,0832.8,5.00,0.00,22.3,21.7,00.0,31.3,24.1,10.3,0000.0,0003.74,0007.60,0003.27
2022-04-25 07:36:00,,0832.9,5.00,0.00,22.3,21.7,00.0,31.3,24.1,10.3,0000.0,0003.72,0007.46,0003.26
2022-04-25 07:37:00,,0832.9,5.00,0.00,22.3,21.6,00.0,31.3,24.1,10.3,0000.0,0003.68,0007.34,0003.25
2022-04-25 07:38:00,,0832.8,5.01,0.00,22.3,21.6,00.0,31.3,24.1,10.4,0000.0,0003.66,0007.27,0003.25
2022-04-25 07:39:00,,0832.8,5.01,0.00,22.3,21.6,00.0,31.3,24.1,10.4,0000.0,0003.66,0007.23,0003.25
2022-04-25 07:40:00,,0832.8,5.01,0.00,22.3,21.6,00.0,31.3,24.1,10.4,0000.0,0003.67,0007.35,0003.25
2022-04-25 07:41:00,,0832.7,4.99,0.00,22.3,21.7,00.0,31.3,24.1,10.4,0000.0,0003.66,0007.26,0003.25
2022-04-25 07:42:00,,0832.8,5.00,0.00,22.3,21.7,00.0,31.3,24.1,10.3,0000.0,0003.67,0007.34,0003.25
2022-04-25 07:43:00,,0832.7,5.00,0.00,22.3,21.7,00.0,31.3,24.1,10.2,0000.0,0003.69,0007.42,0003.24
2022-04-25 07:44:00,,0832.7,4.99,0.00,22.3,21.6,00.0,31.3,24.1,10.3,0000.0,0003.72,0007.54,0003.24
2022-04-25 07:45:00,,0832.8,5.01,0.00,22.3,21.6,00.0,31.3,24.1,10.3,0000.0,0003.73,0007.05,0003.24
2022-04-25 07:46:00,,0832.8,5.01,0.00,22.3,21.7,00.0,31.3,24.1,10.3,0000.0,0003.73,0006.59,0003.25
2022-04-25 07:47:00,,0832.7,4.98,0.00,22.3,21.7,00.0,31.3,24.1,10.3,0000.0,0003.74,0006.66,0003.25
2022-04-25 07:48:00,,0832.8,5.01,0.00,22.3,21.7,00.0,31.3,24.1,10.2,0000.0,0003.77,0006.82,0003.25
2022-04-25 07:49:00,,0832.7,5.00,0.00,22.3,21.7,00.0,31.3,24.2,10.3,0000.0,0003.75,0006.41,0003.24
2022-04-25 07:50:00,,0832.8,4.99,0.00,22.3,21.7,00.0,31.3,24.2,10.3,0000.0,0003.72,0006.30,0003.23
2022-04-25 07:51:00,,0832.8,4.99,0.00,22.4,21.7,00.0,31.3,24.2,10.3,0000.0,0003.71,0006.37,0003.23
2022-04-25 07:52:00,,0832.8,5.01,0.00,22.4,21.7,00.0,31.3,24.3,10.3,0000.0,0003.69,0006.54,0003.22
2022-04-25 07:53:00,,0832.7,5.00,0.00,22.4,21.8,00.0,31.3,24.3,10.3,0000.0,0003.67,0006.62,0003.22
2022-04-25 07:54:00,,0832.7,5.00,0.00,22.4,21.8,00.0,31.3,24.3,10.3,0000.0,0003.69,0006.71,0003.23
2022-04-25 07:55:00,,0832.7,5.00,0.00,22.5,21.8,00.0,31.3,24.3,10.3,0000.0,0003.69,0006.62,0003.23
2022-04-25 07:56:00,,0832.7,5.00,0.00,22.5,21.8,00.0,31.3,24.3,10.2,0000.0,0003.69,0006.59,0003.23
2022-04-25 07:57:00,,0832.8,4.99,0.00,22.5,21.9,00.0,31.3,24.4,10.2,0000.0,0003.69,0006.52,0003.23
2022-04-25 07:58:00,,0832.8,5.01,0.00,22.5,21.9,00.0,31.4,24.4,10.3,0000.0,0003.68,0006.39,0003.23
2022-04-25 07:59:00,,0832.8,5.00,0.00,22.5,21.9,00.0,31.4,24.4,10.3,0000.0,0003.63,0006.47,0003.22
